KD8FRE Weather Reports


time (UTC)temp
C
wind
direction
speed
KPH
gust
KPH
rain 1hr
cm
rain 24hr
cm
rain mn
cm
humidity
%
barometer
mb
20260503175732 15 217 8.0 24.1 0.00 0.00 0.00 41 1011.6
20260503175230 15 278 22.5 27.4 0.00 0.00 0.00 40 1011.6
20260503174727 15 258 12.9 22.5 0.00 0.00 0.00 41 1011.5
20260503174225 15 300 19.3 22.5 0.00 0.00 0.00 40 1011.6
20260503173724 15 266 11.3 24.1 0.00 0.00 0.00 42 1011.6
20260503173221 14 260 17.7 24.1 0.00 0.00 0.00 42 1011.7
20260503172718 14 272 14.5 25.7 0.00 0.00 0.00 41 1011.8
20260503172215 14 246 20.9 29.0 0.00 0.00 0.00 41 1011.7
20260503171711 14 281 14.5 24.1 0.00 0.00 0.00 41 1011.9
20260503171208 14 266 12.9 20.9 0.00 0.00 0.00 41 1011.8
20260503170705 14 260 17.7 30.6 0.00 0.00 0.00 41 1011.9
20260503170202 14 238 20.9 29.0 0.00 0.00 0.00 39 1011.9
20260503160124 12 240 14.5 24.1 0.00 0.00 0.00 44 1013.0
20260503150553 12 260 11.3 16.1 0.00 0.00 0.00 42 1013.4
20260503130943 9 246 16.1 17.7 0.00 0.00 0.00 47 1013.6
20260503130441 9 211 8.0 16.1 0.00 0.00 0.00 49 1013.7
20260503110332 4 273 3.2 4.8 0.00 0.00 0.00 58 1013.8
20260503100258 2 168 0.0 1.6 0.00 0.00 0.00 60 1014.0
20260503090217 3 316 0.0 1.6 0.00 0.00 0.00 55 1014.6
20260503081150 3 322 0.0 1.6 0.00 0.00 0.00 57 1014.8
20260503080646 3 325 0.0 0.0 0.00 0.00 0.00 56 1014.8
20260503080143 3 325 0.0 0.0 0.00 0.00 0.00 55 1014.8
20260503072620 4 300 1.6 4.8 0.00 0.00 0.00 54 1014.8
20260503072117 4 287 3.2 3.2 0.00 0.00 0.00 54 1014.9
20260503071614 4 299 1.6 3.2 0.00 0.00 0.00 53 1014.9
20260503071111 4 266 3.2 4.8 0.00 0.00 0.00 55 1015.0
20260503070608 4 237 3.2 6.4 0.00 0.00 0.00 54 1015.0
20260503070106 4 274 4.8 4.8 0.00 0.00 0.00 54 1015.1
20260503055026 5 288 3.2 6.4 0.00 0.00 0.00 51 1015.7
20260503054522 5 276 3.2 6.4 0.00 0.00 0.00 52 1015.5
20260503054020 5 256 6.4 6.4 0.00 0.00 0.00 53 1015.5
20260503053518 5 260 6.4 11.3 0.00 0.00 0.00 53 1015.7
20260503053015 5 257 4.8 6.4 0.00 0.00 0.00 55 1015.7
20260503052512 4 276 6.4 11.3 0.00 0.00 0.00 55 1015.4
20260503052008 4 259 4.8 6.4 0.00 0.00 0.00 56 1015.8
20260503051503 4 281 3.2 4.8 0.00 0.00 0.00 56 1015.5
20260503051001 4 278 3.2 4.8 0.00 0.00 0.00 58 1015.8
20260503050457 4 296 3.2 6.4 0.00 0.00 0.00 58 1015.8
20260503045955 4 279 3.2 4.8 0.00 0.00 0.00 59 1015.8
20260503045452 4 282 4.8 4.8 0.00 0.00 0.00 59 1015.9
20260503044949 4 290 1.6 3.2 0.00 0.00 0.00 61 1015.9
20260503044445 4 290 1.6 4.8 0.00 0.00 0.00 62 1015.8
20260503043943 4 297 1.6 3.2 0.00 0.00 0.00 60 1015.9
20260503043439 4 297 0.0 1.6 0.00 0.00 0.00 59 1015.8
20260503042936 4 283 0.0 1.6 0.00 0.00 0.00 59 1015.9
20260503042432 4 273 3.2 3.2 0.00 0.00 0.00 61 1016.0
20260503041929 4 265 1.6 4.8 0.00 0.00 0.00 61 1015.9
20260503041426 4 278 0.0 3.2 0.00 0.00 0.00 61 1015.9
20260503040923 4 279 1.6 3.2 0.00 0.00 0.00 63 1015.9
20260503040421 4 280 1.6 1.6 0.00 0.00 0.00 61 1016.0
20260503035918 4 279 1.6 4.8 0.00 0.00 0.00 62 1016.1
20260503035415 4 277 1.6 3.2 0.00 0.00 0.00 64 1016.2
20260503034912 4 278 1.6 3.2 0.00 0.00 0.00 65 1016.1
20260503034409 4 281 1.6 1.6 0.00 0.00 0.00 66 1016.1
20260503033906 4 284 1.6 3.2 0.00 0.00 0.00 67 1016.1
20260503033404 4 284 1.6 1.6 0.00 0.00 0.00 65 1016.1
20260503032902 4 284 1.6 3.2 0.00 0.00 0.00 66 1016.2
20260503032400 3 285 0.0 1.6 0.00 0.00 0.00 65 1016.3
20260503031857 3 285 0.0 1.6 0.00 0.00 0.00 69 1016.1
20260503031355 3 284 0.0 0.0 0.00 0.00 0.00 73 1016.1
20260503030851 3 284 0.0 0.0 0.00 0.00 0.00 70 1016.2
20260503030347 3 284 0.0 0.0 0.00 0.00 0.00 71 1016.2
20260503025844 3 284 0.0 0.0 0.00 0.00 0.00 71 1016.3
20260503025342 3 284 0.0 0.0 0.00 0.00 0.00 70 1016.3
20260503024839 3 284 0.0 0.0 0.00 0.00 0.00 71 1016.3
20260503024335 3 284 0.0 0.0 0.00 0.00 0.00 70 1016.4
20260503023832 3 284 0.0 0.0 0.00 0.00 0.00 68 1016.4
20260503023329 3 284 0.0 0.0 0.00 0.00 0.00 67 1016.5
20260503022826 3 284 0.0 0.0 0.00 0.00 0.00 66 1016.5
20260503022326 3 284 0.0 0.0 0.00 0.00 0.00 65 1016.5
20260503021822 4 284 0.0 0.0 0.00 0.00 0.00 64 1016.5
20260503021319 4 284 0.0 0.0 0.00 0.00 0.00 63 1016.5
20260503020817 4 284 0.0 0.0 0.00 0.00 0.00 64 1016.4
20260503020314 4 284 0.0 0.0 0.00 0.00 0.00 62 1016.2
20260503015810 4 285 0.0 0.0 0.00 0.00 0.00 61 1016.3
20260503015308 5 284 0.0 0.0 0.00 0.00 0.00 59 1016.4
20260503014803 5 284 0.0 0.0 0.00 0.00 0.00 59 1016.3
20260503014301 5 285 0.0 0.0 0.00 0.00 0.00 57 1016.2
20260503013758 5 285 0.0 0.0 0.00 0.00 0.00 55 1016.2
20260503013255 5 285 0.0 0.0 0.00 0.00 0.00 55 1016.2
20260503012752 5 285 0.0 0.0 0.00 0.00 0.00 53 1016.1
20260503012250 6 285 0.0 0.0 0.00 0.00 0.00 52 1016.1
20260503011747 6 285 0.0 0.0 0.00 0.00 0.00 52 1016.1
20260503011244 6 285 0.0 0.0 0.00 0.00 0.00 51 1016.0
20260503010739 6 285 0.0 0.0 0.00 0.00 0.00 49 1016.1
20260503010237 6 285 0.0 0.0 0.00 0.00 0.00 49 1016.0
20260503005734 7 285 0.0 0.0 0.00 0.00 0.00 49 1016.0
20260503005231 7 285 0.0 0.0 0.00 0.00 0.00 50 1016.0
20260503004727 7 285 1.6 3.2 0.00 0.00 0.00 49 1016.0
20260503004226 7 286 1.6 1.6 0.00 0.00 0.00 49 1016.0
20260503003723 7 286 0.0 3.2 0.00 0.00 0.00 47 1015.9
20260503003220 7 287 1.6 3.2 0.00 0.00 0.00 46 1015.9
20260503002716 7 282 4.8 4.8 0.00 0.00 0.00 45 1016.0
20260503002213 7 269 3.2 4.8 0.00 0.00 0.00 46 1016.0
20260503001709 7 288 1.6 4.8 0.00 0.00 0.00 45 1015.9
20260503001206 7 298 3.2 3.2 0.00 0.00 0.00 45 1016.0
20260503000704 7 310 3.2 3.2 0.00 0.00 0.00 46 1015.9
20260503000203 8 286 3.2 4.8 0.00 0.00 0.00 45 1015.9
20260502235657 8 291 3.2 4.8 0.00 0.00 0.00 43 1016.0
20260502235155 8 287 3.2 4.8 0.00 0.00 0.00 44 1015.9
20260502234651 8 263 4.8 4.8 0.00 0.00 0.00 45 1016.0
20260502234149 7 285 3.2 6.4 0.00 0.00 0.00 45 1016.1
20260502233644 7 279 4.8 9.7 0.00 0.00 0.00 44 1016.2
20260502233141 7 303 1.6 3.2 0.00 0.00 0.00 45 1016.0
20260502232637 7 273 6.4 9.7 0.00 0.00 0.00 44 1016.0
20260502232135 8 276 6.4 11.3 0.00 0.00 0.00 44 1016.1
20260502231631 8 251 6.4 6.4 0.00 0.00 0.00 44 1016.0
20260502231129 8 277 6.4 12.9 0.00 0.00 0.00 42 1016.0
20260502230628 8 296 6.4 9.7 0.00 0.00 0.00 45 1016.3
20260502230126 7 294 6.4 6.4 0.00 0.00 0.00 44 1016.1
20260502225620 8 319 8.0 9.7 0.00 0.00 0.00 43 1016.2
20260502225118 8 290 6.4 9.7 0.00 0.00 0.00 42 1016.1
20260502224614 8 285 9.7 12.9 0.00 0.00 0.00 41 1016.1
20260502224111 8 343 3.2 6.4 0.00 0.00 0.00 43 1016.1
20260502223609 7 313 8.0 9.7 0.00 0.00 0.00 44 1016.4
20260502223108 7 330 3.2 9.7 0.00 0.00 0.00 44 1016.3
20260502222604 7 304 6.4 11.3 0.00 0.00 0.00 43 1016.2
20260502222100 7 350 3.2 11.3 0.00 0.00 0.00 43 1016.2
20260502221556 7 278 6.4 6.4 0.00 0.00 0.00 43 1016.2
20260502221054 7 282 6.4 6.4 0.00 0.00 0.00 44 1016.3
20260502220549 8 286 6.4 11.3 0.00 0.00 0.00 42 1016.2
20260502220046 8 349 3.2 9.7 0.00 0.00 0.00 42 1016.4
20260502215543 8 308 4.8 4.8 0.00 0.00 0.00 42 1016.4
20260502215040 8 326 6.4 6.4 0.00 0.00 0.00 44 1016.3
20260502214537 8 325 4.8 6.4 0.00 0.00 0.00 43 1016.4
20260502214035 7 322 6.4 6.4 0.00 0.00 0.00 45 1016.4
20260502213531 7 319 3.2 9.7 0.00 0.00 0.00 45 1016.3
20260502213029 7 287 6.4 9.7 0.00 0.00 0.00 44 1016.5
20260502212528 7 294 3.2 9.7 0.00 0.00 0.00 44 1016.3
20260502212025 7 275 6.4 11.3 0.00 0.00 0.00 45 1016.4
20260502211521 7 306 11.3 16.1 0.00 0.00 0.00 44 1016.6
20260502211018 7 289 6.4 11.3 0.00 0.00 0.00 45 1016.4
20260502210515 7 278 4.8 12.9 0.00 0.00 0.00 44 1016.8
20260502210012 7 271 9.7 11.3 0.00 0.00 0.00 44 1016.5
20260502205508 7 305 6.4 11.3 0.00 0.00 0.00 46 1016.7
20260502205005 7 264 8.0 11.3 0.00 0.00 0.00 45 1016.6
20260502204502 7 279 8.0 9.7 0.00 0.00 0.00 46 1016.7
20260502204000 7 290 14.5 17.7 0.00 0.00 0.00 44 1016.5
20260502203457 7 313 4.8 12.9 0.00 0.00 0.00 44 1016.5
20260502202953 7 299 6.4 16.1 0.00 0.00 0.00 45 1016.8
20260502202450 7 262 8.0 16.1 0.00 0.00 0.00 45 1016.7
20260502201949 7 264 9.7 12.9 0.00 0.00 0.00 43 1016.8
20260502201444 7 331 4.8 6.4 0.00 0.00 0.00 44 1016.8
20260502200941 7 318 8.0 12.9 0.00 0.00 0.00 45 1016.8
20260502200437 7 323 8.0 14.5 0.00 0.00 0.00 45 1017.0
20260502195935 7 305 9.7 22.5 0.00 0.00 0.00 44 1017.2
20260502195431 7 258 11.3 14.5 0.00 0.00 0.00 45 1017.0
20260502194928 7 308 8.0 14.5 0.00 0.00 0.00 44 1017.1
20260502194425 7 269 9.7 14.5 0.00 0.00 0.00 44 1017.2
20260502193920 7 306 11.3 12.9 0.00 0.00 0.00 44 1017.1
20260502193418 7 284 14.5 22.5 0.00 0.00 0.00 42 1017.3
20260502192913 7 309 17.7 24.1 0.00 0.00 0.00 41 1017.2
20260502192410 7 288 9.7 20.9 0.00 0.00 0.00 45 1017.5
20260502191908 7 292 14.5 22.5 0.00 0.00 0.00 44 1017.5
20260502191405 7 272 9.7 14.5 0.00 0.00 0.00 43 1017.4
20260502190903 7 306 6.4 11.3 0.00 0.00 0.00 46 1017.6
20260502190400 7 322 17.7 20.9 0.00 0.00 0.00 44 1017.5
20260502185856 7 272 12.9 17.7 0.00 0.00 0.00 45 1017.5
20260502185351 7 279 12.9 14.5 0.00 0.00 0.00 45 1017.5
20260502184849 6 277 9.7 12.9 0.00 0.00 0.00 44 1017.5
20260502184344 7 272 8.0 16.1 0.00 0.00 0.00 47 1017.7
20260502183841 7 257 6.4 14.5 0.00 0.00 0.00 45 1017.6
20260502183337 6 265 9.7 14.5 0.00 0.00 0.00 44 1017.7
20260502182832 7 287 20.9 24.1 0.00 0.00 0.00 46 1017.7
20260502182328 7 275 6.4 14.5 0.00 0.00 0.00 48 1017.7
20260502181824 7 304 11.3 14.5 0.00 0.00 0.00 43 1017.6
20260502181324 7 278 12.9 16.1 0.00 0.00 0.00 44 1017.7
20260502180821 6 300 6.4 9.7 0.00 0.00 0.00 44 1017.6
20260502180318 7 317 17.7 22.5 0.00 0.00 0.00 43 1017.8